When you browse on this site, cookies collect data to enhance your experience and personalize the content and advertising you see.
Visit our Privacy Policy to learn more. By continuing to use the site, you agree to this use of cookies and data.
  • En España
  • Lista de países
  • Para 7 días
  • Temperatura del agua
  • Mapa Satelital
  • El tiempo en el mapa
  • Informadores
  • user-avatar
    Iniciar sesión

    Tiempo cada hora Jonesboro

    Hoy, 22 Abril, Lunes

    Tiempo Temperatura Precipitaciones Viento Presión Humedad
    00:00 +15°C° 0 mm 4 mps 755 mmHg 76%
    01:00 +15°C° 0 mm 4 mps 755 mmHg 77%
    02:00 +15°C° 0 mm 4 mps 755 mmHg 78%
    03:00 +14°C° 0 mm 3 mps 755 mmHg 79%
    04:00 +14°C° 0 mm 4 mps 756 mmHg 80%
    05:00 +14°C° 0 mm 4 mps 756 mmHg 81%
    06:00 +13°C° 0 mm 4 mps 756 mmHg 82%
    07:00 +15°C° 0 mm 4 mps 756 mmHg 75%
    08:00 +17°C° 0 mm 5 mps 756 mmHg 68%
    09:00 +20°C° 0 mm 6 mps 756 mmHg 62%
    10:00 +22°C° 0 mm 6 mps 756 mmHg 57%
    11:00 +23°C° 0 mm 6 mps 756 mmHg 52%
    12:00 +24°C° 0 mm 7 mps 756 mmHg 48%
    13:00 +26°C° 0 mm 7 mps 755 mmHg 47%
    14:00 +26°C° 0 mm 6 mps 755 mmHg 47%
    15:00 +27°C° 0 mm 6 mps 754 mmHg 47%
    16:00 +26°C° 0 mm 5 mps 754 mmHg 53%
    17:00 +25°C° 0 mm 5 mps 754 mmHg 59%
    18:00 +22°C° 0 mm 4 mps 754 mmHg 65%
    19:00 +21°C° 0 mm 4 mps 754 mmHg 67%
    20:00 +20°C° 0 mm 4 mps 754 mmHg 69%
    21:00 +19°C° 0 mm 4 mps 755 mmHg 71%
    22:00 +18°C° 0 mm 4 mps 755 mmHg 71%
    23:00 +18°C° 0 mm 4 mps 755 mmHg 72%

    Mañana, 23 Abril, Martes

    Tiempo Temperatura Precipitaciones Viento Presión Humedad
    00:00 +18°C° 0 mm 4 mps 755 mmHg 72%
    01:00 +17°C° 0 mm 3 mps 755 mmHg 75%
    02:00 +17°C° 0 mm 3 mps 754 mmHg 77%
    03:00 +17°C° 0 mm 3 mps 754 mmHg 79%
    04:00 +17°C° 0 mm 3 mps 754 mmHg 81%
    05:00 +17°C° 0 mm 3 mps 754 mmHg 83%
    06:00 +17°C° 0 mm 3 mps 754 mmHg 85%
    07:00 +18°C° 0 mm 3 mps 754 mmHg 83%
    08:00 +19°C° 0 mm 4 mps 755 mmHg 80%
    09:00 +20°C° 0 mm 4 mps 755 mmHg 78%
    10:00 +22°C° 0 mm 5 mps 755 mmHg 73%
    11:00 +25°C° 0 mm 5 mps 754 mmHg 68%
    12:00 +27°C° 0 mm 6 mps 754 mmHg 62%
    13:00 +27°C° 0 mm 6 mps 754 mmHg 58%
    14:00 +28°C° 0 mm 6 mps 753 mmHg 54%
    15:00 +28°C° 0 mm 6 mps 753 mmHg 50%
    16:00 +27°C° 0 mm 5 mps 753 mmHg 55%
    17:00 +26°C° 0 mm 4 mps 753 mmHg 59%
    18:00 +23°C° 0 mm 4 mps 752 mmHg 64%
    19:00 +22°C° 0 mm 3 mps 753 mmHg 67%
    20:00 +23°C° 0 mm 2 mps 753 mmHg 69%
    21:00 +21°C° 0 mm 2 mps 753 mmHg 72%
    22:00 +20°C° 0 mm 2 mps 753 mmHg 76%
    23:00 +20°C° 0 mm 1 mps 753 mmHg 80%

    Pasado mañana, 24 Abril, Miércoles

    Tiempo Temperatura Precipitaciones Viento Presión Humedad
    00:00 +19°C° 0 mm 1 mps 753 mmHg 83%
    01:00 +19°C° 0 mm 1 mps 753 mmHg 87%
    02:00 +17°C° 0 mm 2 mps 753 mmHg 90%
    03:00 +17°C° 0 mm 2 mps 753 mmHg 93%
    04:00 +17°C° 0 mm 2 mps 753 mmHg 93%
    05:00 +16°C° 0 mm 3 mps 753 mmHg 93%
    06:00 +16°C° 0 mm 3 mps 753 mmHg 93%
    07:00 +17°C° 0 mm 3 mps 754 mmHg 91%
    08:00 +17°C° 0 mm 3 mps 754 mmHg 88%
    09:00 +18°C° 0 mm 3 mps 754 mmHg 85%
    10:00 +19°C° 0.1 mm 3 mps 754 mmHg 83%
    11:00 +20°C° 0.1 mm 2 mps 754 mmHg 81%
    12:00 +20°C° 0.1 mm 2 mps 754 mmHg 79%
    13:00 +22°C° 0 mm 1 mps 753 mmHg 76%
    14:00 +23°C° 0 mm 1 mps 752 mmHg 73%
    15:00 +24°C° 0 mm 1 mps 752 mmHg 71%
    16:00 +24°C° 0 mm 1 mps 752 mmHg 74%
    17:00 +23°C° 0 mm 1 mps 751 mmHg 77%
    18:00 +23°C° 0 mm 2 mps 751 mmHg 80%
    19:00 +21°C° 0 mm 2 mps 751 mmHg 83%
    20:00 +20°C° 0 mm 2 mps 752 mmHg 86%
    21:00 +19°C° 0 mm 3 mps 752 mmHg 90%
    22:00 +18°C° 0 mm 2 mps 752 mmHg 91%
    23:00 +18°C° 0 mm 2 mps 752 mmHg 91%

    25 Abril, Jueves

    Tiempo Temperatura Precipitaciones Viento Presión Humedad
    00:00 +18°C° 0 mm 2 mps 751 mmHg 92%
    01:00 +18°C° 0.2 mm 2 mps 751 mmHg 93%
    02:00 +18°C° 0.2 mm 2 mps 751 mmHg 94%
    03:00 +18°C° 0.2 mm 2 mps 750 mmHg 95%
    04:00 +18°C° 0.1 mm 2 mps 750 mmHg 96%
    05:00 +18°C° 0.1 mm 2 mps 750 mmHg 96%
    06:00 +18°C° 0.1 mm 2 mps 750 mmHg 96%
    07:00 +19°C° 0.5 mm 2 mps 751 mmHg 93%
    08:00 +19°C° 0.5 mm 3 mps 751 mmHg 89%
    09:00 +20°C° 0.5 mm 3 mps 751 mmHg 86%
    10:00 +21°C° 1.1 mm 4 mps 751 mmHg 80%
    11:00 +23°C° 1.1 mm 5 mps 750 mmHg 74%
    12:00 +25°C° 1.1 mm 5 mps 750 mmHg 69%
    13:00 +25°C° 0.1 mm 4 mps 750 mmHg 66%
    14:00 +25°C° 0.1 mm 4 mps 749 mmHg 62%
    15:00 +25°C° 0.1 mm 3 mps 749 mmHg 59%
    16:00 +24°C° 0.1 mm 3 mps 749 mmHg 63%
    17:00 +22°C° 0.1 mm 3 mps 749 mmHg 67%
    18:00 +21°C° 0.1 mm 2 mps 750 mmHg 71%
    19:00 +20°C° 0.1 mm 2 mps 750 mmHg 75%
    20:00 +19°C° 0.1 mm 2 mps 750 mmHg 80%
    21:00 +18°C° 0.1 mm 2 mps 750 mmHg 84%
    22:00 +18°C° 0 mm 3 mps 750 mmHg 86%
    23:00 +17°C° 0 mm 3 mps 751 mmHg 89%

    26 Abril, Viernes

    Tiempo Temperatura Precipitaciones Viento Presión Humedad
    00:00 +17°C° 0 mm 3 mps 751 mmHg 92%
    01:00 +17°C° 0 mm 3 mps 751 mmHg 92%
    02:00 +17°C° 0 mm 4 mps 751 mmHg 93%
    03:00 +15°C° 0 mm 4 mps 751 mmHg 93%
    04:00 +15°C° 0 mm 4 mps 751 mmHg 93%
    05:00 +15°C° 0 mm 5 mps 752 mmHg 93%
    06:00 +15°C° 0 mm 5 mps 752 mmHg 93%
    07:00 +15°C° 0 mm 5 mps 753 mmHg 89%
    08:00 +16°C° 0 mm 6 mps 754 mmHg 86%
    09:00 +17°C° 0 mm 6 mps 754 mmHg 82%
    10:00 +19°C° 0 mm 6 mps 754 mmHg 75%
    11:00 +21°C° 0 mm 6 mps 755 mmHg 67%
    12:00 +22°C° 0 mm 6 mps 755 mmHg 59%
    13:00 +23°C° 0 mm 6 mps 755 mmHg 55%
    14:00 +23°C° 0 mm 6 mps 754 mmHg 51%
    15:00 +24°C° 0 mm 6 mps 754 mmHg 47%
    16:00 +23°C° 0 mm 5 mps 754 mmHg 52%
    17:00 +22°C° 0 mm 5 mps 754 mmHg 56%
    18:00 +20°C° 0 mm 4 mps 755 mmHg 60%
    19:00 +19°C° 0 mm 3 mps 755 mmHg 64%
    20:00 +18°C° 0 mm 3 mps 755 mmHg 67%
    21:00 +16°C° 0 mm 3 mps 756 mmHg 70%
    22:00 +14°C° 0 mm 3 mps 756 mmHg 71%
    23:00 +14°C° 0 mm 3 mps 755 mmHg 73%

    27 Abril, Sábado

    Tiempo Temperatura Precipitaciones Viento Presión Humedad
    00:00 +14°C° 0 mm 2 mps 755 mmHg 74%
    01:00 +14°C° 0 mm 2 mps 755 mmHg 75%
    02:00 +13°C° 0 mm 2 mps 755 mmHg 76%
    03:00 +13°C° 0 mm 2 mps 754 mmHg 77%
    04:00 +13°C° 0 mm 2 mps 755 mmHg 77%
    05:00 +13°C° 0 mm 2 mps 755 mmHg 78%
    06:00 +12°C° 0 mm 2 mps 755 mmHg 79%
    07:00 +14°C° 0 mm 2 mps 755 mmHg 71%
    08:00 +17°C° 0 mm 2 mps 754 mmHg 64%
    09:00 +19°C° 0 mm 3 mps 754 mmHg 56%
    10:00 +20°C° 0 mm 3 mps 754 mmHg 52%
    11:00 +22°C° 0 mm 3 mps 753 mmHg 47%
    12:00 +25°C° 0 mm 3 mps 752 mmHg 42%
    13:00 +25°C° 0 mm 3 mps 752 mmHg 43%
    14:00 +26°C° 0 mm 4 mps 751 mmHg 44%
    15:00 +26°C° 0 mm 4 mps 750 mmHg 44%
    16:00 +25°C° 0 mm 4 mps 750 mmHg 50%
    17:00 +24°C° 0 mm 3 mps 750 mmHg 56%
    18:00 +24°C° 0 mm 3 mps 750 mmHg 63%
    19:00 +21°C° 0 mm 3 mps 750 mmHg 66%
    20:00 +20°C° 0 mm 3 mps 751 mmHg 69%
    21:00 +19°C° 0 mm 3 mps 751 mmHg 72%
    22:00 +19°C° 0 mm 3 mps 751 mmHg 74%
    23:00 +18°C° 0 mm 3 mps 751 mmHg 76%
    Mostrar más